Location: Home
(42.5358°N, 72.7383°W)
Time: 00:57:01
(UTC-05:00)

Vanguard 3 - Pass Details

Date: 02 December 2021
Orbit: 508 x 3260 km, 33.3° (Epoch: 21 January)

Event Time Altitude Azimuth Distance (km) Brightness Sun altitude
Rises 10:25:35 0° 277° (W) 6,125 11.4 23.1°
Reaches altitude 10° 10:31:46 10° 263° (W) 4,538 10.9 23.5°
Maximum altitude 10:38:46 18° 226° (SW) 3,176 10.7 23.9°
Drops below altitude 10° 10:43:57 10° 186° (S) 3,168 11.6 24.1°
Sets 10:47:14 0° 167° (SSE) 3,734 12.0 24.3°
